Location: Dumbr?vi?a
(45.8833°N, 22.7000°E)
Time: 13:51:02
(UTC+00:00)

Cosmos 2322 Rocket - Pass Details

Date: 03 March 2021
Orbit: 832 x 852 km, 71.0° (Epoch: 15 April)

Event Time Altitude Azimuth Distance (km) Brightness Sun altitude
Rises 17:23:51 0° 207° (SSW) 3,363 5.7 -12.1°
Reaches altitude 10° 17:26:16 10° 209° (SSW) 2,433 4.9 -12.6°
Maximum altitude 17:31:51 81° 296° (WNW) 850 2.3 -13.5°
Drops below altitude 10° 17:37:30 10° 25° (NNE) 2,455 4.4 -14.5°
Sets 17:39:57 0° 26° (NNE) 3,396 5.1 -14.9°
